Location: Brno
(49.2000°N, 16.6330°E)
Time: 11:06:05
(UTC+02:00)

Vanguard 3 - Pass Details

Date: 01 August 2021
Orbit: 510 x 3260 km, 33.3° (Epoch: 18 September)

Event Time Altitude Azimuth Distance (km) Brightness Sun altitude
Rises 22:15:28 0° 265° (W) 6,568 12.3 -13.7°
Reaches altitude 10° 22:19:49 10° 259° (W) 5,803 11.9 -14.2°
Maximum altitude 22:36:49 43° 197° (SSW) 4,079 10.4 -15.9°
Enters shadow 22:49:22 20° 142° (SE) 5,022 10.5 -17.0°
